This demonstration page uses our WeatherBlox Daily Observations layout. Learn more.

41.55636, -103.73856

Hourly Observations for July 31, 2019

Temp ( °F °C ) Dew Point ( °F °C ) Humidity (%) Winds ( mph kmh ) Pressure ( in mb ) Visibility ( mi km ) Precip ( " mm )
12:53 am 00:53 Clear 71 21.7 64 17.8 79 79 ESE 17 28 29.8 1009 10 16.09344 0 0
1:53 am 01:53 Clear 68 20 63 17.2 84 84 ESE 10 17 29.77 1008 10 16.09344 0 0
2:53 am 02:53 Clear 65 18.3 62 16.7 90 90 ENE 3 6 29.8 1009 10 16.09344 0 0
3:53 am 03:53 Clear 63 17.2 61 16.1 93 93 NNE 3 6 29.8 1009 10 16.09344 0 0
4:53 am 04:53 Clear 67 19.4 62 16.7 84 84 NNE 15 24 29.88 1012 10 16.09344 0 0
5:53 am 05:53 Sunny 66 18.9 62 16.7 87 87 NNE 7 11 29.91 1013 10 16.09344 0 0
6:53 am 06:53 Mostly Sunny 66 18.9 62 16.7 87 87 ENE 13 20 29.94 1014 10 16.09344 0 0
7:23 am 07:23 Mostly Cloudy 67 19.4 63 17.2 87 87 NE 9 15 29.94 1014 10 16.09344 0 0
7:53 am 07:53 Mostly Cloudy 70 21.1 63 17.2 79 79 ENE 13 20 29.97 1015 10 16.09344 0 0
8:04 am 08:04 Partly Cloudy 70 21 63 17 78 78 E 9 15 29.94 1014 10 16.09344 0 0
8:53 am 08:53 Mostly Sunny 74 23.3 63 17.2 69 69 VRB 3 6 29.97 1015 10 16.09344 0 0
9:53 am 09:53 Sunny 75 23.9 63 17.2 66 66 SW 5 7 29.97 1015 10 16.09344 0 0
10:53 am 10:53 Sunny 80 26.7 63 17.2 56 56 Calm 29.97 1015 10 16.09344 0 0
11:53 am 11:53 Sunny 82 27.8 63 17.2 53 53 Calm 29.97 1015 10 16.09344 0 0
12:53 pm 12:53 Sunny 82 27.8 61 16.1 49 49 VRB 5 7 29.97 1015 10 16.09344 0 0
1:53 pm 13:53 Sunny 85 29.4 62 16.7 46 46 ENE 5 7 29.94 1014 10 16.09344 0 0
2:53 pm 14:53 Sunny 89 31.7 62 16.7 41 41 E 10 17 29.91 1013 10 16.09344 0 0
3:53 pm 15:53 Sunny 90 32.2 62 16.7 39 39 SE 6 9 29.91 1013 10 16.09344 0 0
4:53 pm 16:53 Sunny 91 32.8 63 17.2 39 39 ESE 10 17 29.91 1013 10 16.09344 0 0
5:53 pm 17:53 Sunny 87 30.6 63 17.2 45 45 SSE 3 6 29.91 1013 10 16.09344 0 0
6:53 pm 18:53 Sunny 88 31.1 64 17.8 45 45 Calm 29.91 1013 10 16.09344 0 0
7:53 pm 19:53 Sunny 83 28.3 66 18.9 57 57 Calm 29.91 1013 10 16.09344 0 0
8:53 pm 20:53 Clear 78 25.6 68 20 71 71 NE 6 9 29.94 1014 10 16.09344 0 0
9:53 pm 21:53 Clear 78 25.6 63 17.2 60 60 E 8 13 29.97 1015 10 16.09344 0 0
10:53 pm 22:53 Clear 75 23.9 66 18.9 74 74 ESE 8 13 29.97 1015 10 16.09344 0 0
11:53 pm 23:53 Clear 74 23.3 67 19.4 79 79 E 8 13 30 1016 10 16.09344 0 0

Powered by AerisWeather